EN

Hourly Weather Godzieszki

Today, 18 May, Tuesday

Time Temperature Precipitation Wind Pressure Humidity
00:00 +11°C° 0.7 mm 1 mps 743 mmHg 95%
01:00 +11°C° 0 mm 1 mps 743 mmHg 95%
02:00 +11°C° 0.2 mm 1 mps 743 mmHg 95%
03:00 +10°C° 0.2 mm 2 mps 743 mmHg 95%
04:00 +9°C° 0.2 mm 2 mps 743 mmHg 96%
05:00 +10°C° 0.2 mm 3 mps 743 mmHg 95%
06:00 +10°C° 0.2 mm 4 mps 743 mmHg 94%
07:00 +9°C° 0.2 mm 5 mps 744 mmHg 93%
08:00 +10°C° 0.1 mm 5 mps 744 mmHg 90%
09:00 +12°C° 0.1 mm 5 mps 744 mmHg 86%
10:00 +13°C° 0.1 mm 6 mps 744 mmHg 82%
11:00 +13°C° 0.4 mm 6 mps 745 mmHg 82%
12:00 +13°C° 0.4 mm 6 mps 745 mmHg 81%
13:00 +14°C° 0.4 mm 7 mps 745 mmHg 80%
14:00 +14°C° 0.5 mm 7 mps 745 mmHg 80%
15:00 +14°C° 0.5 mm 6 mps 745 mmHg 80%
16:00 +14°C° 0.5 mm 6 mps 745 mmHg 81%
17:00 +13°C° 0.3 mm 6 mps 745 mmHg 83%
18:00 +12°C° 0.3 mm 5 mps 745 mmHg 84%
19:00 +12°C° 0.3 mm 5 mps 746 mmHg 86%
20:00 +10°C° 0 mm 5 mps 746 mmHg 88%
21:00 +11°C° 0 mm 4 mps 746 mmHg 89%
22:00 +10°C° 0 mm 4 mps 746 mmHg 91%
23:00 +8°C° 0 mm 4 mps 746 mmHg 93%

Tomorrow, 19 May, Wednesday

Time Temperature Precipitation Wind Pressure Humidity
00:00 +8°C° 0 mm 4 mps 746 mmHg 94%
01:00 +8°C° 0 mm 3 mps 747 mmHg 96%
02:00 +7°C° 0.1 mm 4 mps 747 mmHg 96%
03:00 +6°C° 0.1 mm 4 mps 747 mmHg 96%
04:00 +6°C° 0.1 mm 4 mps 747 mmHg 96%
05:00 +7°C° 0 mm 4 mps 747 mmHg 92%
06:00 +8°C° 0 mm 4 mps 748 mmHg 88%
07:00 +11°C° 0 mm 4 mps 748 mmHg 84%
08:00 +12°C° 0.3 mm 4 mps 748 mmHg 80%
09:00 +13°C° 0.3 mm 5 mps 748 mmHg 75%
10:00 +14°C° 0.3 mm 5 mps 748 mmHg 71%
11:00 +14°C° 0.5 mm 5 mps 748 mmHg 69%
12:00 +14°C° 0.5 mm 5 mps 748 mmHg 68%
13:00 +15°C° 0.5 mm 5 mps 748 mmHg 66%
14:00 +14°C° 0.4 mm 5 mps 748 mmHg 68%
15:00 +14°C° 0.4 mm 4 mps 748 mmHg 69%
16:00 +14°C° 0.4 mm 4 mps 748 mmHg 70%
17:00 +13°C° 0.4 mm 4 mps 748 mmHg 76%
18:00 +12°C° 0.4 mm 3 mps 748 mmHg 81%
19:00 +11°C° 0.4 mm 3 mps 748 mmHg 86%
20:00 +10°C° 0 mm 3 mps 748 mmHg 88%
21:00 +9°C° 0 mm 3 mps 748 mmHg 90%
22:00 +9°C° 0 mm 3 mps 749 mmHg 92%
23:00 +8°C° 0 mm 3 mps 749 mmHg 92%

Day after tomorrow, 20 May, Thursday

Time Temperature Precipitation Wind Pressure Humidity
00:00 +8°C° 0 mm 3 mps 749 mmHg 92%
01:00 +7°C° 0 mm 3 mps 749 mmHg 92%
02:00 +7°C° 0 mm 3 mps 749 mmHg 92%
03:00 +6°C° 0 mm 2 mps 750 mmHg 92%
04:00 +6°C° 0 mm 2 mps 750 mmHg 91%
05:00 +7°C° 0 mm 2 mps 750 mmHg 87%
06:00 +9°C° 0 mm 3 mps 751 mmHg 82%
07:00 +10°C° 0 mm 3 mps 751 mmHg 78%
08:00 +11°C° 0 mm 3 mps 751 mmHg 73%
09:00 +13°C° 0 mm 3 mps 751 mmHg 69%
10:00 +14°C° 0 mm 4 mps 751 mmHg 64%
11:00 +15°C° 0.1 mm 4 mps 751 mmHg 61%
12:00 +15°C° 0.1 mm 4 mps 751 mmHg 59%
13:00 +17°C° 0.1 mm 4 mps 751 mmHg 57%
14:00 +15°C° 0.4 mm 4 mps 751 mmHg 62%
15:00 +15°C° 0.4 mm 5 mps 751 mmHg 67%
16:00 +14°C° 0.4 mm 5 mps 751 mmHg 72%
17:00 +13°C° 0.4 mm 4 mps 751 mmHg 77%
18:00 +12°C° 0.4 mm 4 mps 752 mmHg 82%
19:00 +11°C° 0.4 mm 3 mps 752 mmHg 87%
20:00 +10°C° 0 mm 3 mps 752 mmHg 89%
21:00 +9°C° 0 mm 3 mps 752 mmHg 90%
22:00 +8°C° 0 mm 3 mps 753 mmHg 92%
23:00 +8°C° 0 mm 2 mps 753 mmHg 92%

21 May, Friday

Time Temperature Precipitation Wind Pressure Humidity
00:00 +7°C° 0 mm 2 mps 753 mmHg 92%
01:00 +7°C° 0 mm 2 mps 753 mmHg 92%
02:00 +7°C° 0 mm 2 mps 753 mmHg 91%
03:00 +6°C° 0 mm 2 mps 753 mmHg 91%
04:00 +6°C° 0 mm 2 mps 753 mmHg 91%
05:00 +8°C° 0 mm 2 mps 753 mmHg 87%
06:00 +9°C° 0 mm 3 mps 753 mmHg 83%
07:00 +11°C° 0 mm 3 mps 753 mmHg 79%
08:00 +12°C° 0 mm 3 mps 752 mmHg 72%
09:00 +14°C° 0 mm 4 mps 752 mmHg 65%
10:00 +15°C° 0 mm 5 mps 751 mmHg 58%
11:00 +16°C° 0 mm 5 mps 751 mmHg 55%
12:00 +17°C° 0 mm 5 mps 750 mmHg 52%
13:00 +17°C° 0 mm 5 mps 750 mmHg 49%
14:00 +17°C° 0 mm 5 mps 749 mmHg 51%
15:00 +17°C° 0 mm 5 mps 749 mmHg 54%
16:00 +17°C° 0 mm 5 mps 748 mmHg 56%
17:00 +17°C° 0 mm 4 mps 748 mmHg 62%
18:00 +15°C° 0 mm 4 mps 747 mmHg 67%
19:00 +14°C° 0 mm 4 mps 747 mmHg 72%
20:00 +14°C° 0 mm 5 mps 747 mmHg 69%
21:00 +14°C° 0 mm 5 mps 746 mmHg 65%
22:00 +14°C° 0 mm 5 mps 746 mmHg 61%
23:00 +13°C° 0 mm 5 mps 746 mmHg 65%

22 May, Saturday

Time Temperature Precipitation Wind Pressure Humidity
00:00 +13°C° 0 mm 5 mps 745 mmHg 68%
01:00 +12°C° 0 mm 5 mps 745 mmHg 72%
02:00 +12°C° 0 mm 5 mps 744 mmHg 71%
03:00 +11°C° 0 mm 6 mps 744 mmHg 69%
04:00 +11°C° 0 mm 6 mps 743 mmHg 68%
05:00 +13°C° 0 mm 6 mps 743 mmHg 68%
06:00 +14°C° 0 mm 6 mps 743 mmHg 69%
07:00 +14°C° 0 mm 6 mps 744 mmHg 70%
08:00 +15°C° 0 mm 6 mps 743 mmHg 66%
09:00 +16°C° 0 mm 6 mps 743 mmHg 62%
10:00 +19°C° 0 mm 6 mps 743 mmHg 58%
11:00 +17°C° 0.1 mm 5 mps 743 mmHg 61%
12:00 +17°C° 0.1 mm 5 mps 743 mmHg 64%
13:00 +17°C° 0.1 mm 4 mps 743 mmHg 66%
14:00 +15°C° 0.2 mm 4 mps 743 mmHg 74%
15:00 +14°C° 0.2 mm 5 mps 743 mmHg 81%
16:00 +13°C° 0.2 mm 5 mps 743 mmHg 88%
17:00 +12°C° 0 mm 5 mps 743 mmHg 87%
18:00 +12°C° 0 mm 4 mps 744 mmHg 87%
19:00 +12°C° 0 mm 4 mps 744 mmHg 86%
20:00 +11°C° 0 mm 4 mps 744 mmHg 85%
21:00 +11°C° 0 mm 4 mps 745 mmHg 84%
22:00 +11°C° 0 mm 4 mps 745 mmHg 82%
23:00 +9°C° 0 mm 5 mps 745 mmHg 82%

23 May, Sunday

Time Temperature Precipitation Wind Pressure Humidity
00:00 +8°C° 0 mm 5 mps 746 mmHg 82%
01:00 +8°C° 0 mm 5 mps 746 mmHg 82%
02:00 +7°C° 0 mm 5 mps 746 mmHg 84%
03:00 +7°C° 0 mm 4 mps 746 mmHg 87%
04:00 +7°C° 0 mm 4 mps 746 mmHg 90%
05:00 +8°C° 0 mm 4 mps 746 mmHg 85%
06:00 +9°C° 0 mm 5 mps 747 mmHg 79%
07:00 +10°C° 0 mm 5 mps 747 mmHg 74%
08:00 +12°C° 0.1 mm 5 mps 747 mmHg 71%
09:00 +13°C° 0.1 mm 6 mps 747 mmHg 69%
10:00 +14°C° 0.1 mm 6 mps 748 mmHg 67%
11:00 +14°C° 0.2 mm 6 mps 748 mmHg 65%
12:00 +14°C° 0.2 mm 6 mps 748 mmHg 63%
13:00 +15°C° 0.2 mm 6 mps 748 mmHg 61%
14:00 +14°C° 0.1 mm 6 mps 748 mmHg 62%
15:00 +14°C° 0.1 mm 6 mps 748 mmHg 63%
16:00 +14°C° 0.1 mm 6 mps 749 mmHg 64%
17:00 +13°C° 0.2 mm 5 mps 749 mmHg 68%
18:00 +12°C° 0.2 mm 4 mps 749 mmHg 72%
19:00 +11°C° 0.2 mm 3 mps 749 mmHg 76%
20:00 +10°C° 0 mm 3 mps 750 mmHg 77%
21:00 +9°C° 0 mm 3 mps 750 mmHg 79%
22:00 +8°C° 0 mm 3 mps 750 mmHg 80%
23:00 +8°C° 0 mm 3 mps 750 mmHg 80%
Show more